Location: Santa Barbara
(34.4500°N, 119.7700°W)
Time: 00:14:01
(UTC-08:00)

Envisat - Pass Details

Date: 28 October 2019
Orbit: 764 x 766 km, 98.1° (Epoch: 13 November)

Event Time Altitude Azimuth Distance (km) Brightness Sun altitude
Rises 20:31:00 0° 215° (SW) 3,218 6.6 -29.7°
Reaches altitude 10° 20:34:53 10° 246° (WSW) 2,298 6.2 -30.5°
Maximum altitude 20:36:48 12° 269° (W) 2,158 6.2 -30.9°
Drops below altitude 10° 20:38:44 10° 291° (WNW) 2,303 6.3 -31.3°
Sets 20:42:39 0° 322° (NW) 3,235 6.8 -32.1°
